<?xml version="1.0" encoding="UTF-8" standalone="no" ?>
<gpx xmlns="http://www.topografix.com/GPX/1/1" xmlns:xsi="http://www.w3.org/2001/XMLSchema-instance" xsi:schemaLocation="http://www.topografix.com/GPX/1/1 http://www.topografix.com/GPX/1/1/gpx.xsd" version="1.1" creator="VisuGPX - https://www.visugpx.com">
  <metadata>
    <name>StLaurentOust_Houssa_13-19km</name>
    <desc><![CDATA[gnerando idor: 7170662_7072306_7072310_7072327]]></desc>
  </metadata>
  <trk>
    <name><![CDATA[StLaurentOust_Houssa_12.8km-7072306]]></name>
    <extensions>
      <line xmlns="http://www.topografix.com/GPX/gpx_style/0/2">
        <color>00FF00</color>
        <width>4</width>
      </line>
    </extensions>
    <trkseg>
      <trkpt lat="47.79441" lon="-2.31912">
        <ele>15</ele>
        <time>2023-11-13T07:27:31Z</time>
      </trkpt>
      <trkpt lat="47.79413" lon="-2.32112">
        <ele>13</ele>
        <time>2023-11-13T07:30:34Z</time>
      </trkpt>
      <trkpt lat="47.79171" lon="-2.31961">
        <ele>12</ele>
        <time>2023-11-13T07:36:24Z</time>
      </trkpt>
      <trkpt lat="47.79015" lon="-2.31734">
        <ele>11</ele>
        <time>2023-11-13T07:41:15Z</time>
      </trkpt>
      <trkpt lat="47.79055" lon="-2.31648">
        <ele>14</ele>
        <time>2023-11-13T07:42:49Z</time>
      </trkpt>
      <trkpt lat="47.78951" lon="-2.31532">
        <ele>12</ele>
        <time>2023-11-13T07:45:43Z</time>
      </trkpt>
      <trkpt lat="47.79127" lon="-2.3085">
        <ele>28</ele>
        <time>2023-11-13T07:56:38Z</time>
      </trkpt>
      <trkpt lat="47.78597" lon="-2.30489">
        <ele>47</ele>
        <time>2023-11-13T08:09:35Z</time>
      </trkpt>
      <trkpt lat="47.78695" lon="-2.30228">
        <ele>45</ele>
        <time>2023-11-13T08:14:04Z</time>
      </trkpt>
      <trkpt lat="47.78577" lon="-2.3012">
        <ele>65</ele>
        <time>2023-11-13T08:17:08Z</time>
      </trkpt>
      <trkpt lat="47.78995" lon="-2.2888">
        <ele>61</ele>
        <time>2023-11-13T08:37:52Z</time>
      </trkpt>
      <trkpt lat="47.79413" lon="-2.29009">
        <ele>60</ele>
        <time>2023-11-13T08:47:22Z</time>
      </trkpt>
      <trkpt lat="47.79407" lon="-2.28528">
        <ele>70</ele>
        <time>2023-11-13T08:54:33Z</time>
      </trkpt>
      <trkpt lat="47.79029" lon="-2.28279">
        <ele>79</ele>
        <time>2023-11-13T09:03:45Z</time>
      </trkpt>
      <trkpt lat="47.79009" lon="-2.27739">
        <ele>76</ele>
        <time>2023-11-13T09:11:50Z</time>
      </trkpt>
      <trkpt lat="47.78917" lon="-2.27833">
        <ele>99</ele>
        <time>2023-11-13T09:14:19Z</time>
      </trkpt>
      <trkpt lat="47.78882" lon="-2.2776">
        <ele>101</ele>
        <time>2023-11-13T09:15:39Z</time>
      </trkpt>
      <trkpt lat="47.7896" lon="-2.27648">
        <ele>83</ele>
        <time>2023-11-13T09:18:04Z</time>
      </trkpt>
      <trkpt lat="47.78848" lon="-2.2761">
        <ele>98</ele>
        <time>2023-11-13T09:20:37Z</time>
      </trkpt>
      <trkpt lat="47.78591" lon="-2.28374">
        <ele>100</ele>
        <time>2023-11-13T09:33:23Z</time>
      </trkpt>
      <trkpt lat="47.78531" lon="-2.28284">
        <ele>101</ele>
        <time>2023-11-13T09:35:17Z</time>
      </trkpt>
      <trkpt lat="47.78383" lon="-2.28799">
        <ele>100</ele>
        <time>2023-11-13T09:43:39Z</time>
      </trkpt>
      <trkpt lat="47.77936" lon="-2.28631">
        <ele>86</ele>
        <time>2023-11-13T09:53:54Z</time>
      </trkpt>
      <trkpt lat="47.77962" lon="-2.28691">
        <ele>88</ele>
        <time>2023-11-13T09:54:58Z</time>
      </trkpt>
      <trkpt lat="47.77859" lon="-2.29116">
        <ele>74</ele>
        <time>2023-11-13T10:01:43Z</time>
      </trkpt>
      <trkpt lat="47.78066" lon="-2.29232">
        <ele>88</ele>
        <time>2023-11-13T10:06:39Z</time>
      </trkpt>
      <trkpt lat="47.7798" lon="-2.29618">
        <ele>79</ele>
        <time>2023-11-13T10:12:43Z</time>
      </trkpt>
      <trkpt lat="47.7832" lon="-2.29811">
        <ele>98</ele>
        <time>2023-11-13T10:20:49Z</time>
      </trkpt>
      <trkpt lat="47.78392" lon="-2.30253">
        <ele>84</ele>
        <time>2023-11-13T10:27:37Z</time>
      </trkpt>
      <trkpt lat="47.78415" lon="-2.3073">
        <ele>77</ele>
        <time>2023-11-13T10:34:45Z</time>
      </trkpt>
      <trkpt lat="47.7828" lon="-2.30889">
        <ele>73</ele>
        <time>2023-11-13T10:38:35Z</time>
      </trkpt>
      <trkpt lat="47.78357" lon="-2.31253">
        <ele>64</ele>
        <time>2023-11-13T10:44:17Z</time>
      </trkpt>
      <trkpt lat="47.78438" lon="-2.31313">
        <ele>57</ele>
        <time>2023-11-13T10:46:18Z</time>
      </trkpt>
      <trkpt lat="47.78464" lon="-2.31172">
        <ele>68</ele>
        <time>2023-11-13T10:48:29Z</time>
      </trkpt>
      <trkpt lat="47.78418" lon="-2.31064">
        <ele>79</ele>
        <time>2023-11-13T10:50:24Z</time>
      </trkpt>
      <trkpt lat="47.78421" lon="-2.30996">
        <ele>79</ele>
        <time>2023-11-13T10:51:25Z</time>
      </trkpt>
      <trkpt lat="47.78487" lon="-2.31125">
        <ele>66</ele>
        <time>2023-11-13T10:53:50Z</time>
      </trkpt>
      <trkpt lat="47.78528" lon="-2.3106">
        <ele>57</ele>
        <time>2023-11-13T10:55:10Z</time>
      </trkpt>
      <trkpt lat="47.78516" lon="-2.30871">
        <ele>58</ele>
        <time>2023-11-13T10:58:00Z</time>
      </trkpt>
      <trkpt lat="47.78476" lon="-2.30657">
        <ele>65</ele>
        <time>2023-11-13T11:01:20Z</time>
      </trkpt>
      <trkpt lat="47.78545" lon="-2.30498">
        <ele>56</ele>
        <time>2023-11-13T11:04:09Z</time>
      </trkpt>
      <trkpt lat="47.78574" lon="-2.30567">
        <ele>47</ele>
        <time>2023-11-13T11:05:22Z</time>
      </trkpt>
      <trkpt lat="47.7862" lon="-2.30481">
        <ele>45</ele>
        <time>2023-11-13T11:07:01Z</time>
      </trkpt>
      <trkpt lat="47.79136" lon="-2.30811">
        <ele>27</ele>
        <time>2023-11-13T11:19:30Z</time>
      </trkpt>
      <trkpt lat="47.78951" lon="-2.31494">
        <ele>13</ele>
        <time>2023-11-13T11:30:31Z</time>
      </trkpt>
      <trkpt lat="47.79122" lon="-2.31682">
        <ele>15</ele>
        <time>2023-11-13T11:35:14Z</time>
      </trkpt>
      <trkpt lat="47.79338" lon="-2.31807">
        <ele>15</ele>
        <time>2023-11-13T11:40:24Z</time>
      </trkpt>
      <trkpt lat="47.79445" lon="-2.31983">
        <ele>14</ele>
        <time>2023-11-13T11:43:56Z</time>
      </trkpt>
    </trkseg>
  </trk>
</gpx>